[[{"header":{"parameterUnit":"m.s-1","parameterCategory":2,"la1":30.2991,"la2":30.254,"lo1":-89.0895,"lo2":-89.0444,"dy":0.0017,"dx":0.0017,"nx":28,"ny":28,"refTime":"2025-07-26T21:00:00:Z","depth":"0","parameterNumber":2,"parameterNumberName":"U-component_of_CURRENTS"},"data":[0,0,0,0,0,0,0,0,0,0,0,0,0,0,0,0,0,0,0,0,0,0,0,0,0,0,0,0,0,0,0,0,0,0,0,0,0,0,0,0,0,0,0,0,0,0,0,0,0,0,0,0,0,0,0,0,0,0,0.4179,0.418,0,0.4263,0.4263,0.4264,0.4287,0.4287,0.4287,0.4287,0.4311,0.4312,0.4312,0,0,0,0,0,0,0,0,0,0,0,0,0,0.4034,0.4036,0.4179,0.418,0.4182,0.4263,0.4263,0.4264,0.4287,0.4287,0.4287,0.4288,0.4311,0.4312,0.4312,0,0,0,0,0,0,0,0,0,0,0,0,0,0.4098,0.4036,0.4178,0.4209,0.4213,0.4263,0.4263,0.4264,0.4287,0.4287,0.4287,0.4288,0.4311,0.4312,0.4312,0.431,0,0,0.4314,0.4315,0,0,0,0,0,0,0,0,0.4094,0.4102,0.4203,0.4207,0.4212,0.4271,0.4222,0.4279,0.4287,0.4251,0.4287,0.4288,0.4297,0.4299,0.4304,0.4311,0.4312,0.4314,0.4315,0.4315,0.4315,0,0,0,0,0,0,0,0.409,0.4099,0.4204,0.4205,0.421,0.4218,0.4226,0.4232,0.4264,0.4254,0.4258,0.4279,0.4298,0.4303,0.4305,0.4313,0.4314,0.4315,0.4315,0.4316,0.4388,0.4389,0,0,0,0,0,0,0.4095,0.4095,0.4202,0.4208,0.4161,0.4221,0.423,0.4246,0.4265,0.4272,0.4279,0.428,0.4302,0.4304,0.4306,0.4342,0.4315,0.4316,0.4316,0.4386,0.4388,0.439,0,0,0,0,0,0,0.4091,0.4103,0.4198,0.4159,0.4173,0.4224,0.4241,0.4247,0.4259,0.4287,0.429,0.4285,0.4303,0.4305,0.4336,0.4342,0.4316,0.4317,0.4384,0.4387,0.4389,0.4391,0,0,0,0,0,0,0.4087,0.4101,0.4105,0.416,0.4176,0.4228,0.4241,0.4249,0.4275,0.4277,0.4293,0.4295,0.4303,0.4336,0.4337,0.4342,0.4317,0.4382,0.4385,0.4388,0.4389,0.4393,0.4396,0,0,0,0,0,0.4081,0.4093,0.4105,0.4118,0.4182,0.4229,0.4236,0.4268,0.4275,0.4278,0.4307,0.4295,0.4355,0.4338,0.4339,0.4344,0.4381,0.4384,0.4388,0.4387,0.4392,0.4396,0,0,0,0,0,0,0.402,0.4099,0.4112,0.4143,0.4182,0.4236,0.4252,0.4268,0.4292,0.4297,0.4312,0.4317,0.4358,0.4352,0.4333,0.4378,0.4366,0.437,0.4365,0.437,0.4374,0.441,0.4318,0,0,0,0,0,0.4012,0.4047,0.4109,0.413,0.4156,0.42,0.4221,0.4243,0.428,0.429,0.4306,0.4331,0.4371,0.4371,0.4405,0.441,0.4445,0.4419,0.4422,0.4425,0.4459,0.4532,0.4545,0.4401,0.4401,0.4401,0,0,0.3995,0.4043,0.4061,0.4121,0.4157,0.4192,0.4212,0.425,0.4275,0.4289,0.432,0.4353,0.4385,0.4416,0.4429,0.4406,0.4478,0.443,0.4431,0.4465,0.4537,0.4551,0.4563,0.4403,0.4403,0.4402,0,0,0.398,0.4022,0.4045,0.4085,0.4148,0.4183,0.4194,0.4248,0.427,0.4302,0.4342,0.4393,0.4403,0.4455,0.4476,0.452,0.4515,0.4503,0.4525,0.4593,0.4606,0.4617,0.4647,0.4662,0.448,0.4481,0.4481,0,0.3951,0.3995,0.4053,0.4087,0.4123,0.418,0.4204,0.4241,0.4293,0.4317,0.4311,0.4411,0.4437,0.4514,0.4537,0.4531,0.4549,0.4496,0.4598,0.461,0.4622,0.4651,0.4667,0.4481,0.4481,0.4481,0.4481,0,0.3955,0.3993,0.4015,0.4081,0.4118,0.4155,0.4223,0.4254,0.4283,0.4318,0.4397,0.4455,0.4514,0.4524,0.4543,0.4637,0.4616,0.461,0.4582,0.4637,0.4663,0.4679,0.4482,0.4482,0.4481,0.4481,0,0,0.3879,0.3995,0.3999,0.4027,0.4123,0.4146,0.421,0.4276,0.4312,0.4368,0.4426,0.4521,0.4558,0.4593,0.4627,0.4687,0.4781,0.4676,0.4679,0.4699,0.4901,0.4803,0.4811,0.4777,0.4781,0.4784,0.4873,0,0.3861,0.392,0.3984,0.4026,0.4064,0.4144,0.4193,0.4259,0.4316,0.4384,0.448,0.455,0.458,0.461,0.4687,0.4782,0.483,0.4756,0.4853,0.4857,0.4758,0.483,0.4638,0.4695,0.4889,0.4892,0.4894,0,0.3832,0.3886,0.3931,0.4013,0.4033,0.4061,0.4149,0.42,0.4325,0.4372,0.4476,0.455,0.4697,0.4693,0.4884,0.4827,0.4875,0.4927,0.4931,0.4862,0.4792,0.4681,0.4718,0.458,0.4919,0.4917,0.4916,0,0.3748,0.3834,0.3869,0.3901,0.4008,0.403,0.4078,0.4185,0.4241,0.4375,0.4434,0.4595,0.4684,0.4806,0.4942,0.4911,0.5127,0.5086,0.5038,0.5029,0.4903,0.4877,0.4819,0.5207,0.5206,0.5206,0.5206,0,0.371,0.3729,0.3828,0.3849,0.3876,0.3961,0.4006,0.4077,0.4203,0.427,0.4423,0.4511,0.4718,0.4863,0.4964,0.5069,0.5146,0.5077,0.5065,0.4892,0.4865,0.4768,0.471,0.5209,0.5209,0.5208,0.5207,0,0.3619,0.3693,0.3727,0.382,0.3842,0.3854,0.3957,0.3998,0.4121,0.4226,0.4275,0.4479,0.4653,0.4843,0.5042,0.5073,0.5046,0.5193,0.4961,0.492,0.4698,0.4647,0.4501,0.438,0.5142,0.514,0.5139,0,0.3582,0.3597,0.368,0.3696,0.3736,0.378,0.3819,0.3941,0.3994,0.4191,0.4233,0.4435,0.4563,0.4829,0.4928,0.5077,0.4966,0.4949,0.4864,0.4684,0.4621,0.4474,0.4372,0.4687,0.4682,0.4678,0.4674,0,0.3506,0.3535,0.357,0.3613,0.3641,0.368,0.3739,0.3777,0.3924,0.4027,0.415,0.427,0.4493,0.4563,0.475,0.4814,0.469,0.4864,0.4756,0.4336,0.4099,0.3974,0.461,0.4638,0.4642,0.4645,0.4646,0.4648,0.3431,0.3437,0.3487,0.3513,0.3545,0.3565,0.356,0.3646,0.3723,0.3836,0.4,0.4094,0.4242,0.4466,0.4506,0.4396,0.4416,0.4291,0.4269,0.4155,0.3955,0.4494,0.4458,0.446,0.4462,0.4464,0.4466,0,0.3335,0.3362,0.3388,0.341,0.3398,0.3455,0.3492,0.3475,0.3516,0.3645,0.375,0.3819,0.3887,0.3975,0.3968,0.3845,0.3712,0.3748,0.3505,0.3456,0.4008,0.3904,0.3649,0.3649,0.3649,0.365,0.365,0.365,0.3285,0.3278,0.3305,0.3261,0.3269,0.3215,0.3212,0.3209,0.3255,0.3263,0.3261,0.3347,0.3509,0.36,0.348,0.3409,0.3167,0.3024,0.3047,0.3441,0.349,0.3536,0.3424,0.3073,0.3073,0.2358,0.2353,0.2349]},{"header":{"parameterUnit":"m.s-1","parameterCategory":2,"la1":30.2991,"la2":30.254,"lo1":-89.0895,"lo2":-89.0444,"dy":0.0017,"dx":0.0017,"nx":28,"ny":28,"refTime":"2025-07-26T21:00:00:Z","depth":"0","parameterNumber":3,"parameterNumberName":"V-component_of_CURRENTS"},"data":[0,0,0,0,0,0,0,0,0,0,0,0,0,0,0,0,0,0,0,0,0,0,0,0,0,0,0,0,0,0,0,0,0,0,0,0,0,0,0,0,0,0,0,0,0,0,0,0,0,0,0,0,0,0,0,0,0,0,0.0744,0.0743,0,0.0657,0.0656,0.0655,0.0581,0.0581,0.058,0.0579,0.0491,0.049,0.0488,0,0,0,0,0,0,0,0,0,0,0,0,0,0.0787,0.0787,0.0744,0.0743,0.0742,0.0658,0.0656,0.0655,0.0581,0.0581,0.058,0.0579,0.0492,0.049,0.0488,0,0,0,0,0,0,0,0,0,0,0,0,0,0.0739,0.0787,0.0744,0.0698,0.0693,0.0658,0.0656,0.0654,0.0581,0.0581,0.058,0.0579,0.0493,0.049,0.0487,0.0487,0,0,0.0479,0.0478,0,0,0,0,0,0,0,0,0.0741,0.0737,0.0705,0.0701,0.0695,0.0632,0.0639,0.0599,0.0582,0.062,0.0579,0.0579,0.0541,0.0534,0.0515,0.0482,0.0479,0.0479,0.0477,0.0476,0.0475,0,0,0,0,0,0,0,0.0745,0.074,0.0707,0.0705,0.0699,0.0661,0.0654,0.0631,0.0584,0.0617,0.0612,0.0608,0.0537,0.0518,0.0513,0.0477,0.0479,0.0476,0.0474,0.0473,0.045,0.0451,0,0,0,0,0,0,0.0766,0.0743,0.0709,0.0704,0.072,0.0662,0.0653,0.0651,0.0584,0.0574,0.0608,0.0605,0.0523,0.0516,0.0509,0.0536,0.0476,0.0473,0.0472,0.0449,0.045,0.0451,0,0,0,0,0,0,0.0767,0.0764,0.0713,0.0724,0.0715,0.0663,0.066,0.0649,0.0632,0.0578,0.0567,0.0603,0.0522,0.0513,0.0506,0.053,0.0472,0.0469,0.0447,0.0449,0.045,0.0568,0,0,0,0,0,0,0.0769,0.0765,0.0769,0.0726,0.0716,0.0702,0.0661,0.0648,0.0632,0.0626,0.057,0.056,0.0521,0.0511,0.0503,0.0526,0.0467,0.0446,0.0448,0.045,0.0563,0.0574,0.0583,0,0,0,0,0,0.077,0.0789,0.0769,0.0765,0.0723,0.0703,0.0694,0.0651,0.0633,0.0631,0.0602,0.0562,0.0517,0.051,0.0501,0.0523,0.0445,0.0448,0.045,0.0559,0.0572,0.0583,0,0,0,0,0,0,0.081,0.0782,0.076,0.0768,0.074,0.0692,0.0693,0.0662,0.0635,0.0633,0.058,0.0569,0.0573,0.0531,0.0525,0.052,0.0472,0.0473,0.0558,0.057,0.058,0.0607,0.0465,0,0,0,0,0,0.0822,0.083,0.0789,0.0797,0.0789,0.0742,0.0729,0.0699,0.0671,0.0657,0.0624,0.0591,0.0574,0.056,0.0536,0.0536,0.0504,0.0542,0.0552,0.056,0.0575,0.0566,0.0577,0.0458,0.0458,0.0458,0,0,0.0844,0.0828,0.0832,0.0806,0.0784,0.0785,0.0732,0.0722,0.0725,0.0655,0.0661,0.0629,0.0584,0.0587,0.0583,0.0555,0.0574,0.0563,0.0571,0.0582,0.057,0.0582,0.0592,0.046,0.046,0.046,0,0,0.089,0.0875,0.0892,0.0876,0.0849,0.0824,0.0827,0.0786,0.0771,0.0766,0.0727,0.0719,0.0676,0.0661,0.0644,0.0694,0.0631,0.0675,0.0742,0.0734,0.0744,0.0752,0.0716,0.072,0.0674,0.0674,0.0674,0,0.0917,0.0928,0.0895,0.0904,0.0904,0.085,0.0869,0.085,0.0813,0.0817,0.0783,0.0756,0.0716,0.0736,0.0747,0.0719,0.069,0.0704,0.0749,0.0756,0.0763,0.0723,0.0727,0.068,0.068,0.0679,0.0678,0,0.0966,0.0976,0.0991,0.0989,0.0984,0.0994,0.0965,0.0966,0.0941,0.0917,0.0927,0.088,0.0865,0.0848,0.0809,0.0842,0.0798,0.0769,0.0724,0.0783,0.0736,0.0738,0.0689,0.0687,0.0685,0.0683,0,0,0.102,0.1026,0.1029,0.1042,0.103,0.1031,0.1058,0.106,0.1085,0.1046,0.1084,0.1046,0.1017,0.0998,0.0955,0.094,0.0953,0.0878,0.0875,0.0852,0.0915,0.0852,0.0846,0.0933,0.0934,0.0935,0.0859,0,0.1067,0.1107,0.1097,0.1142,0.1163,0.114,0.1171,0.1167,0.1157,0.1181,0.1143,0.1154,0.1075,0.1078,0.1056,0.0998,0.0964,0.0975,0.0852,0.0848,0.0795,0.0849,0.0786,0.0711,0.086,0.086,0.086,0,0.1109,0.1134,0.1186,0.1222,0.1231,0.1248,0.129,0.1311,0.1329,0.1324,0.1328,0.1296,0.1296,0.1213,0.1135,0.1145,0.1037,0.0969,0.0964,0.0869,0.079,0.0677,0.0707,0.0508,0.0861,0.0861,0.0861,0,0.1151,0.1194,0.1241,0.1251,0.1285,0.1309,0.1329,0.1352,0.1387,0.1425,0.1457,0.1435,0.1436,0.1335,0.1199,0.1168,0.11,0.1035,0.0866,0.0858,0.0763,0.0746,0.0596,0.0957,0.0957,0.0957,0.0957,0,0.12,0.1235,0.1262,0.1286,0.1349,0.1357,0.1427,0.1443,0.1497,0.1563,0.1537,0.1587,0.1466,0.1412,0.1261,0.1089,0.1144,0.0893,0.0848,0.0799,0.0787,0.0573,0.0481,0.0954,0.0955,0.0956,0.0956,0,0.1227,0.1251,0.1301,0.1346,0.1367,0.1407,0.1478,0.1532,0.1577,0.1672,0.1697,0.1706,0.1643,0.1499,0.1341,0.1165,0.0884,0.0917,0.0858,0.0808,0.0444,0.0362,0.0189,0.0107,0.0715,0.0713,0.0712,0,0.1239,0.1269,0.1331,0.1369,0.1387,0.1453,0.1507,0.1563,0.1629,0.1748,0.1804,0.1789,0.1802,0.156,0.1255,0.0987,0.0817,0.072,0.0642,0.0429,0.0305,0.0258,0.02,0.0548,0.0545,0.0543,0.0541,0,0.1253,0.1272,0.1312,0.1393,0.145,0.1531,0.1612,0.168,0.1775,0.188,0.1998,0.2034,0.1794,0.1527,0.1152,0.0936,0.0571,0.0661,0.0466,0.0191,0.0107,0.0005,0.0573,0.0521,0.0523,0.0525,0.0526,0.0527,0.1241,0.1273,0.1329,0.1407,0.1489,0.1599,0.1676,0.1795,0.1938,0.2128,0.214,0.2231,0.1781,0.1269,0.097,0.0327,0.0387,0.0124,0.0049,0.0027,-0.0069,0.0448,0.0334,0.0335,0.0336,0.0337,0.0337,0,0.121,0.1267,0.1342,0.1443,0.1541,0.159,0.1743,0.1854,0.2045,0.2235,0.2367,0.2156,0.162,0.1062,0.021,-0.0196,-0.0328,-0.041,-0.0503,-0.0528,-0.0063,-0.0089,-0.0328,-0.0328,-0.0327,-0.0327,-0.0327,-0.0327,0.1193,0.1252,0.1309,0.1461,0.1549,0.1689,0.1784,0.1983,0.2145,0.2381,0.2427,0.2426,0.1898,0.0461,-0.0496,-0.0701,-0.0946,-0.1025,-0.1097,-0.0815,-0.0771,-0.0729,-0.0775,-0.1154,-0.1155,-0.1539,-0.1543,-0.1546]}],[{"header":{"parameterUnit":"m.s-1","parameterCategory":2,"la1":30.2991,"la2":30.254,"lo1":-89.0895,"lo2":-89.0444,"dy":0.0017,"dx":0.0017,"nx":28,"ny":28,"refTime":"2025-07-26T21:00:00:Z","depth":"2","parameterNumber":2,"parameterNumberName":"U-component_of_CURRENTS"},"data":[0,0,0,0,0,0,0,0,0,0,0,0,0,0,0,0,0,0,0,0,0,0,0,0,0,0,0,0,0,0,0,0,0,0,0,0,0,0,0,0,0,0,0,0,0,0,0,0,0,0,0,0,0,0,0,0,0,0,0.2461,0.2462,0,0.2557,0.2558,0.2559,0.265,0.2651,0.2652,0.2653,0.2831,0.2835,0.2839,0,0,0,0,0,0,0,0,0,0,0,0,0,0.2348,0.235,0.2461,0.2462,0.2463,0.2557,0.2558,0.256,0.265,0.2651,0.2653,0.2654,0.283,0.2835,0.2839,0,0,0,0,0,0,0,0,0,0,0,0,0,0.2418,0.2351,0.2461,0.2518,0.2524,0.2556,0.2558,0.256,0.265,0.2651,0.2653,0.2654,0.2829,0.2834,0.284,0.2846,0,0,0.2858,0.286,0,0,0,0,0,0,0,0,0.2414,0.2422,0.2509,0.2514,0.2521,0.2592,0.2584,0.2659,0.2649,0.2604,0.2653,0.2655,0.2757,0.2768,0.2785,0.2854,0.2862,0.2858,0.2862,0.2864,0.2866,0,0,0,0,0,0,0,0.2409,0.2418,0.2501,0.2509,0.2517,0.2536,0.2548,0.2598,0.2674,0.2608,0.2614,0.2622,0.2761,0.2779,0.279,0.2865,0.2858,0.2863,0.2867,0.2869,0.302,0.3021,0,0,0,0,0,0,0.2392,0.2414,0.2498,0.2503,0.2468,0.2537,0.255,0.2569,0.2672,0.2688,0.262,0.2626,0.2768,0.2783,0.2796,0.2892,0.2864,0.2869,0.2873,0.302,0.302,0.3021,0,0,0,0,0,0,0.239,0.2399,0.2494,0.2459,0.2472,0.2537,0.2557,0.257,0.2616,0.268,0.2698,0.2657,0.277,0.2788,0.2848,0.2897,0.2872,0.2877,0.3019,0.302,0.3021,0.3031,0,0,0,0,0,0,0.2386,0.2398,0.2412,0.2458,0.2473,0.2525,0.2556,0.2571,0.2615,0.2624,0.2716,0.2733,0.2772,0.2839,0.2854,0.2904,0.2882,0.3018,0.3019,0.302,0.303,0.3032,0.3034,0,0,0,0,0,0.2382,0.2396,0.2413,0.2423,0.2489,0.2525,0.2536,0.2587,0.2616,0.2635,0.2688,0.2731,0.2857,0.2843,0.2861,0.2914,0.3018,0.3019,0.302,0.3029,0.3032,0.3034,0,0,0,0,0,0,0.2363,0.2407,0.2427,0.2457,0.2492,0.254,0.2564,0.2596,0.2653,0.2674,0.2732,0.2752,0.2818,0.2856,0.2839,0.2957,0.2948,0.2952,0.2949,0.2952,0.2954,0.2966,0.2886,0,0,0,0,0,0.236,0.238,0.2424,0.2448,0.2468,0.2519,0.2543,0.2581,0.263,0.2659,0.2722,0.2786,0.2831,0.2882,0.2922,0.2993,0.3037,0.3038,0.304,0.3042,0.3061,0.3176,0.3191,0.3025,0.3025,0.3025,0,0,0.2356,0.2385,0.2396,0.2444,0.248,0.2512,0.254,0.2586,0.2622,0.2669,0.2748,0.2788,0.2842,0.2911,0.2949,0.296,0.3101,0.3043,0.3045,0.3063,0.3179,0.3196,0.321,0.3026,0.3026,0.3026,0,0,0.2353,0.2389,0.2404,0.2435,0.2488,0.252,0.2535,0.2602,0.2644,0.2704,0.2745,0.2813,0.2894,0.2952,0.2985,0.3024,0.309,0.3044,0.3096,0.3207,0.3222,0.3237,0.3271,0.3289,0.3069,0.3069,0.3069,0,0.235,0.238,0.2414,0.2442,0.2472,0.2524,0.2556,0.2597,0.2677,0.2719,0.2732,0.2862,0.2915,0.3003,0.3025,0.3035,0.3087,0.3083,0.3213,0.3228,0.3243,0.3275,0.3294,0.307,0.307,0.307,0.307,0,0.2357,0.2391,0.2406,0.2457,0.2492,0.2529,0.2586,0.2641,0.2695,0.2742,0.2836,0.29,0.2992,0.3017,0.3042,0.3172,0.3166,0.3184,0.3211,0.3261,0.329,0.331,0.3071,0.307,0.307,0.307,0,0,0.2332,0.2397,0.2406,0.2431,0.2509,0.2534,0.2603,0.2676,0.2729,0.2812,0.289,0.2983,0.3039,0.3081,0.313,0.3237,0.3371,0.3273,0.3279,0.3313,0.3581,0.3363,0.3363,0.3433,0.3438,0.3441,0.3544,0,0.2333,0.2371,0.2416,0.2464,0.249,0.2566,0.2619,0.2695,0.2767,0.2854,0.2942,0.3028,0.3056,0.312,0.3229,0.3306,0.3432,0.3338,0.3523,0.3527,0.3334,0.3382,0.3175,0.3233,0.3564,0.3567,0.357,0,0.2329,0.2356,0.2396,0.2468,0.249,0.2535,0.2639,0.2698,0.2823,0.2887,0.2999,0.3065,0.3194,0.3236,0.3428,0.3371,0.3508,0.3579,0.3585,0.34,0.3347,0.3246,0.3257,0.3603,0.3601,0.3598,0.3596,0,0.2274,0.2345,0.2373,0.2398,0.2486,0.2538,0.2603,0.2718,0.2776,0.293,0.2996,0.3129,0.322,0.3378,0.3482,0.3505,0.3675,0.3721,0.3658,0.3642,0.3507,0.3469,0.3952,0.3952,0.3952,0.3951,0.3951,0,0.225,0.2275,0.2354,0.2366,0.2415,0.2506,0.258,0.267,0.2801,0.2875,0.3022,0.3104,0.3285,0.3377,0.3495,0.3559,0.3689,0.3671,0.367,0.3492,0.3454,0.3817,0.38,0.3955,0.3954,0.3954,0.3953,0,0.2181,0.2235,0.2261,0.235,0.2386,0.2425,0.2553,0.2603,0.2752,0.2861,0.2922,0.3108,0.3232,0.3333,0.3557,0.3551,0.3646,0.3679,0.3392,0.3354,0.3551,0.3534,0.3637,0.363,0.3625,0.362,0.3616,0,0.2144,0.2147,0.222,0.2236,0.2284,0.2358,0.2408,0.2562,0.2632,0.2847,0.2896,0.3069,0.3159,0.3279,0.3329,0.3417,0.3575,0.3261,0.3279,0.3538,0.3529,0.3519,0.3509,0.311,0.3102,0.3096,0.3091,0,0.2051,0.208,0.2093,0.2136,0.2186,0.2234,0.2339,0.2383,0.2572,0.2659,0.2808,0.29,0.3058,0.3023,0.3073,0.3113,0.3189,0.3132,0.3539,0.3173,0.3036,0.3027,0.3037,0.3034,0.304,0.3044,0.3047,0.305,0.1965,0.1954,0.1978,0.2015,0.2069,0.2119,0.2132,0.2237,0.2312,0.2441,0.2616,0.2695,0.2786,0.2768,0.2709,0.2685,0.2938,0.287,0.2894,0.2924,0.2796,0.2653,0.2553,0.2555,0.2558,0.256,0.2562,0,0.1843,0.1855,0.1862,0.1895,0.1903,0.2001,0.2078,0.2054,0.2088,0.2255,0.2352,0.224,0.226,0.2371,0.2277,0.2265,0.2302,0.2178,0.2247,0.2303,0.2354,0.2201,0.1798,0.1795,0.1792,0.179,0,0,0.177,0.1732,0.1743,0.1721,0.1768,0.1762,0.179,0.1788,0.1871,0.1842,0.1915,0.2153,0.2311,0.2021,0.1991,0.1888,0.2079,0.1818,0.2441,0.2581,0.2628,0.277,0.2598,0,0,0,0,0]},{"header":{"parameterUnit":"m.s-1","parameterCategory":2,"la1":30.2991,"la2":30.254,"lo1":-89.0895,"lo2":-89.0444,"dy":0.0017,"dx":0.0017,"nx":28,"ny":28,"refTime":"2025-07-26T21:00:00:Z","depth":"2","parameterNumber":3,"parameterNumberName":"V-component_of_CURRENTS"},"data":[0,0,0,0,0,0,0,0,0,0,0,0,0,0,0,0,0,0,0,0,0,0,0,0,0,0,0,0,0,0,0,0,0,0,0,0,0,0,0,0,0,0,0,0,0,0,0,0,0,0,0,0,0,0,0,0,0,0,-0.0567,-0.0568,0,-0.065,-0.0651,-0.0652,-0.0689,-0.0689,-0.0689,-0.069,-0.0667,-0.0666,-0.0665,0,0,0,0,0,0,0,0,0,0,0,0,0,-0.0444,-0.0446,-0.0567,-0.0568,-0.0569,-0.065,-0.0651,-0.0652,-0.0689,-0.0689,-0.069,-0.069,-0.0667,-0.0666,-0.0665,0,0,0,0,0,0,0,0,0,0,0,0,0,-0.0508,-0.0447,-0.0566,-0.0599,-0.0603,-0.065,-0.0651,-0.0652,-0.0689,-0.0689,-0.069,-0.069,-0.0667,-0.0666,-0.0665,-0.0656,0,0,-0.0662,-0.0662,0,0,0,0,0,0,0,0,-0.0504,-0.0512,-0.0593,-0.0597,-0.0601,-0.0661,-0.06,-0.0649,-0.0689,-0.0654,-0.069,-0.069,-0.0656,-0.0656,-0.067,-0.0655,-0.0654,-0.0662,-0.0661,-0.0661,-0.0661,0,0,0,0,0,0,0,-0.05,-0.0509,-0.0598,-0.0594,-0.0599,-0.0611,-0.062,-0.061,-0.065,-0.0657,-0.0661,-0.0673,-0.0658,-0.0671,-0.067,-0.0654,-0.0662,-0.0661,-0.0661,-0.066,-0.0643,-0.0643,0,0,0,0,0,0,-0.0493,-0.0505,-0.0595,-0.06,-0.0554,-0.0613,-0.0623,-0.064,-0.0653,-0.0656,-0.0673,-0.0675,-0.0673,-0.0671,-0.0669,-0.063,-0.0661,-0.066,-0.0659,-0.0643,-0.0643,-0.0643,0,0,0,0,0,0,-0.049,-0.0501,-0.0592,-0.0555,-0.0568,-0.0616,-0.0634,-0.0642,-0.0636,-0.0666,-0.0667,-0.0658,-0.0673,-0.067,-0.066,-0.063,-0.066,-0.0659,-0.0643,-0.0643,-0.0643,-0.057,0,0,0,0,0,0,-0.0487,-0.0499,-0.0498,-0.0555,-0.057,-0.06,-0.0635,-0.0643,-0.0646,-0.0648,-0.0653,-0.0653,-0.0673,-0.0662,-0.0659,-0.0629,-0.0658,-0.0642,-0.0643,-0.0643,-0.0572,-0.0568,-0.0564,0,0,0,0,0,-0.0482,-0.0473,-0.0498,-0.0508,-0.0571,-0.0599,-0.0606,-0.064,-0.0645,-0.0635,-0.0653,-0.0652,-0.0662,-0.0661,-0.0658,-0.0627,-0.0642,-0.0643,-0.0643,-0.0574,-0.0569,-0.0564,0,0,0,0,0,0,-0.0409,-0.0479,-0.0506,-0.0517,-0.055,-0.0606,-0.0598,-0.0621,-0.0629,-0.0621,-0.0647,-0.0648,-0.0638,-0.0644,-0.0642,-0.0629,-0.0653,-0.0653,-0.0602,-0.0597,-0.0593,-0.056,-0.0657,0,0,0,0,0,-0.0397,-0.0412,-0.0476,-0.048,-0.0493,-0.054,-0.0551,-0.0573,-0.0596,-0.06,-0.0607,-0.0621,-0.0641,-0.0627,-0.0646,-0.0617,-0.0617,-0.0602,-0.0597,-0.0593,-0.0568,-0.0548,-0.0539,-0.0644,-0.0644,-0.0644,0,0,-0.0369,-0.0408,-0.0416,-0.0466,-0.0491,-0.0499,-0.0544,-0.0548,-0.0549,-0.0592,-0.0573,-0.0604,-0.0637,-0.0629,-0.0622,-0.0621,-0.057,-0.0594,-0.059,-0.0566,-0.0547,-0.0537,-0.0527,-0.0644,-0.0644,-0.0644,0,0,-0.0321,-0.0354,-0.0354,-0.0376,-0.0413,-0.0445,-0.0438,-0.0479,-0.0489,-0.0486,-0.0533,-0.0543,-0.0547,-0.0575,-0.0589,-0.0567,-0.0561,-0.0571,-0.0497,-0.0479,-0.0469,-0.046,-0.0463,-0.0455,-0.0551,-0.0551,-0.0551,0,-0.0286,-0.03,-0.0351,-0.0352,-0.0359,-0.0412,-0.0399,-0.0421,-0.0451,-0.0452,-0.0464,-0.0502,-0.0523,-0.0533,-0.0531,-0.0552,-0.0544,-0.0509,-0.0469,-0.046,-0.0452,-0.0457,-0.0449,-0.0548,-0.0548,-0.0548,-0.0549,0,-0.0247,-0.0251,-0.0242,-0.0271,-0.0279,-0.0271,-0.0315,-0.0312,-0.0325,-0.0356,-0.0362,-0.0409,-0.0423,-0.0443,-0.0471,-0.0438,-0.0454,-0.0477,-0.0471,-0.0436,-0.0445,-0.0438,-0.0543,-0.0544,-0.0545,-0.0546,0,0,-0.0194,-0.0215,-0.021,-0.0201,-0.0232,-0.023,-0.0223,-0.024,-0.022,-0.0255,-0.0236,-0.0286,-0.0307,-0.0326,-0.0371,-0.0352,-0.0303,-0.0368,-0.0369,-0.0352,-0.0261,-0.0348,-0.0349,-0.0304,-0.0302,-0.03,-0.0295,0,-0.0149,-0.0127,-0.015,-0.011,-0.01,-0.0132,-0.0117,-0.0133,-0.0149,-0.0142,-0.0202,-0.0206,-0.0267,-0.026,-0.0254,-0.0331,-0.0277,-0.0302,-0.0314,-0.0314,-0.0378,-0.0341,-0.0314,-0.0312,-0.0288,-0.0287,-0.0286,0,-0.0111,-0.01,-0.0058,-0.003,-0.0025,-0.0005,0.0021,0.0027,0.0004,-0.0005,-0.0026,-0.0074,-0.0113,-0.0129,-0.0192,-0.0204,-0.0188,-0.0221,-0.0222,-0.0315,-0.0386,-0.0342,-0.03,-0.0275,-0.0276,-0.0276,-0.0277,0,-0.0058,-0.003,0.0012,0.0018,0.0034,0.0063,0.0078,0.0073,0.0102,0.0086,0.0114,0.0033,0.0031,-0.0023,-0.0141,-0.0133,-0.0193,-0.0199,-0.0245,-0.0253,-0.0238,-0.0249,-0.0121,-0.0121,-0.0121,-0.0121,-0.0121,0,-0.0013,0.0027,0.0046,0.0067,0.014,0.0132,0.0202,0.0205,0.023,0.0285,0.0199,0.024,0.0081,0.0003,-0.0098,-0.0208,-0.0164,-0.0216,-0.0246,-0.022,-0.0228,-0.0203,-0.0212,-0.0121,-0.0121,-0.0121,-0.0121,0,0.0034,0.0041,0.0096,0.0137,0.0161,0.0215,0.0288,0.0343,0.0353,0.0428,0.0438,0.0404,0.0307,0.0105,0.0006,-0.0129,-0.0251,-0.0251,-0.0242,-0.0271,-0.0316,-0.0322,-0.0293,-0.0295,-0.0298,-0.03,-0.0301,0,0.006,0.0087,0.0153,0.02,0.0225,0.03,0.0361,0.0398,0.047,0.0539,0.0599,0.0553,0.0537,0.0254,0.0,-0.0233,-0.0212,-0.0327,-0.0295,-0.0296,-0.0328,-0.033,-0.0333,-0.0248,-0.0249,-0.025,-0.025,0,0.0107,0.0129,0.0173,0.027,0.0346,0.0438,0.0537,0.0621,0.0686,0.0763,0.0876,0.087,0.0629,0.0386,0.0019,-0.013,-0.0338,-0.0349,-0.0327,-0.0234,-0.026,-0.029,-0.0292,-0.0258,-0.0257,-0.0257,-0.0256,-0.0256,0.0148,0.0193,0.0254,0.0351,0.0448,0.0591,0.0701,0.083,0.098,0.1119,0.1075,0.1081,0.0761,0.0331,0.0006,-0.0325,-0.0284,-0.038,-0.0373,-0.0366,-0.0387,-0.0419,-0.0451,-0.0451,-0.0451,-0.0451,-0.0452,0,0.0195,0.0248,0.0336,0.0465,0.0596,0.0634,0.0834,0.0969,0.1192,0.1268,0.134,0.1061,0.0767,0.0422,-0.0061,-0.0374,-0.0366,-0.0457,-0.0369,-0.0361,-0.0354,-0.0371,-0.0431,-0.0432,-0.0432,-0.0433,0,0,0.0218,0.0306,0.0354,0.057,0.068,0.089,0.1025,0.1248,0.1377,0.1469,0.1462,0.1334,0.09,0.0557,0.0125,-0.0135,-0.0164,-0.0186,-0.0175,-0.0014,-0.0002,-0.0294,-0.0311,0,0,0,0,0]}],[{"header":{"parameterUnit":"m.s-1","parameterCategory":2,"la1":30.2991,"la2":30.254,"lo1":-89.0895,"lo2":-89.0444,"dy":0.0017,"dx":0.0017,"nx":28,"ny":28,"refTime":"2025-07-26T21:00:00:Z","depth":"4","parameterNumber":2,"parameterNumberName":"U-component_of_CURRENTS"},"data":[0,0,0,0,0,0,0,0,0,0,0,0,0,0,0,0,0,0,0,0,0,0,0,0,0,0,0,0,0,0,0,0,0,0,0,0,0,0,0,0,0,0,0,0,0,0,0,0,0,0,0,0,0,0,0,0,0,0,0.0886,0.0887,0,0.0936,0.0936,0.0937,0.0989,0.099,0.099,0.0991,0.1048,0.1049,0.105,0,0,0,0,0,0,0,0,0,0,0,0,0,0.0828,0.0829,0.0886,0.0887,0.0887,0.0935,0.0936,0.0937,0.0989,0.099,0.0991,0.0991,0.1048,0.1049,0.105,0,0,0,0,0,0,0,0,0,0,0,0,0,0.0864,0.0829,0.0886,0.0918,0.0922,0.0935,0.0936,0.0937,0.0989,0.099,0.0991,0.0992,0.1048,0.1049,0.105,0.1039,0,0,0.1055,0.1055,0,0,0,0,0,0,0,0,0.0861,0.0866,0.0913,0.0916,0.092,0.0957,0.0937,0.0971,0.0989,0.0964,0.0991,0.0992,0.1017,0.1021,0.1029,0.1041,0.1044,0.1055,0.1056,0.1056,0.1057,0,0,0,0,0,0,0,0.0859,0.0864,0.0906,0.0914,0.0918,0.0928,0.0934,0.0944,0.0985,0.0966,0.097,0.0974,0.102,0.1028,0.1031,0.1045,0.1055,0.1056,0.1057,0.1057,0.1117,0.1118,0,0,0,0,0,0,0.0851,0.0862,0.0905,0.0908,0.0892,0.0928,0.0935,0.0944,0.0985,0.0992,0.0973,0.0976,0.1025,0.1029,0.1033,0.1079,0.1056,0.1057,0.1058,0.1117,0.1118,0.1118,0,0,0,0,0,0,0.085,0.0855,0.0903,0.0885,0.0892,0.0928,0.0938,0.0945,0.098,0.099,0.0998,0.1005,0.1026,0.1031,0.1069,0.1079,0.1058,0.1059,0.1116,0.1117,0.1118,0.1133,0,0,0,0,0,0,0.0848,0.0854,0.0868,0.0884,0.0892,0.0927,0.0937,0.0945,0.0979,0.0985,0.1019,0.1024,0.1027,0.1067,0.107,0.1081,0.106,0.1115,0.1116,0.1118,0.1132,0.1135,0.1138,0,0,0,0,0,0.0846,0.0853,0.0868,0.0874,0.0907,0.0928,0.0934,0.0962,0.098,0.0998,0.1026,0.1024,0.1078,0.1069,0.1073,0.1084,0.1114,0.1116,0.1118,0.1131,0.1134,0.1138,0,0,0,0,0,0,0.083,0.0859,0.0876,0.0892,0.0918,0.0937,0.0958,0.0975,0.1011,0.1024,0.1037,0.1044,0.1085,0.1082,0.1071,0.1106,0.1094,0.1097,0.1103,0.1107,0.111,0.1153,0.1061,0,0,0,0,0,0.0833,0.0851,0.0878,0.0893,0.0912,0.0941,0.0958,0.0976,0.1003,0.1021,0.1046,0.1069,0.1089,0.1098,0.1119,0.1133,0.1154,0.1142,0.1145,0.1147,0.1186,0.1203,0.1211,0.1124,0.1124,0.1124,0,0,0.083,0.0848,0.0859,0.0892,0.0919,0.0948,0.0956,0.0987,0.1015,0.102,0.1076,0.109,0.11,0.1125,0.114,0.1125,0.1183,0.115,0.1151,0.119,0.1206,0.1215,0.1222,0.1125,0.1125,0.1125,0,0,0.0826,0.0856,0.0874,0.0901,0.0941,0.0961,0.0977,0.1015,0.1045,0.1089,0.1099,0.1129,0.1159,0.1166,0.1172,0.1204,0.1208,0.1197,0.1235,0.125,0.1258,0.1265,0.1302,0.1313,0.1185,0.1185,0.1185,0,0.0825,0.085,0.0881,0.0908,0.0936,0.0973,0.1003,0.1033,0.1078,0.1106,0.1117,0.118,0.1185,0.1211,0.1226,0.1212,0.1229,0.1216,0.1254,0.1262,0.1269,0.1306,0.1317,0.1186,0.1186,0.1186,0.1186,0,0.0833,0.0865,0.0881,0.0933,0.0966,0.0996,0.1044,0.1086,0.1129,0.1157,0.1218,0.1233,0.1273,0.1262,0.126,0.1299,0.13,0.1263,0.1245,0.1279,0.1315,0.1326,0.1188,0.1187,0.1187,0.1187,0,0,0.0803,0.0873,0.0883,0.0915,0.0985,0.1009,0.1072,0.1132,0.118,0.1228,0.1289,0.1322,0.1343,0.1353,0.1339,0.1351,0.1407,0.1334,0.1335,0.1374,0.1464,0.1401,0.1408,0.1368,0.137,0.1372,0.1469,0,0.0807,0.0853,0.0894,0.0952,0.0986,0.1049,0.1105,0.1165,0.1224,0.129,0.1321,0.1379,0.1368,0.1392,0.1405,0.1415,0.1439,0.1387,0.1427,0.143,0.137,0.1419,0.1378,0.1478,0.1481,0.1482,0.1484,0,0.0803,0.0838,0.0891,0.0972,0.0997,0.1041,0.1145,0.1197,0.1291,0.1343,0.1407,0.1444,0.1501,0.1474,0.1535,0.1501,0.1507,0.1505,0.1506,0.146,0.1389,0.1439,0.1504,0.1503,0.1501,0.15,0.1499,0,0.0756,0.0835,0.0879,0.0907,0.1004,0.1053,0.1114,0.1215,0.1274,0.1386,0.1445,0.1513,0.1565,0.1586,0.1616,0.1581,0.1675,0.1609,0.1563,0.1559,0.1578,0.157,0.166,0.166,0.166,0.1659,0.1659,0,0.0734,0.077,0.0866,0.0886,0.0951,0.1037,0.1117,0.1192,0.1308,0.1382,0.1471,0.1539,0.1598,0.1656,0.1657,0.1667,0.1711,0.1609,0.1586,0.1582,0.1573,0.1586,0.1577,0.1663,0.1662,0.1662,0.1661,0,0.0673,0.0736,0.0784,0.0889,0.0926,0.0975,0.1108,0.1162,0.1293,0.1395,0.1444,0.1583,0.1675,0.1724,0.1774,0.1718,0.1727,0.1713,0.1755,0.1726,0.1593,0.1583,0.1674,0.1673,0.1672,0.1671,0.167,0,0.0643,0.0664,0.0762,0.0794,0.0846,0.0933,0.0988,0.1132,0.12,0.1411,0.1451,0.1606,0.1683,0.1721,0.1767,0.179,0.1755,0.1747,0.1639,0.163,0.1598,0.159,0.1581,0.1668,0.1668,0.1668,0.1668,0,0.0585,0.0627,0.0666,0.0724,0.0785,0.085,0.0951,0.0999,0.1178,0.1301,0.1447,0.153,0.1635,0.1691,0.1735,0.1731,0.1742,0.1735,0.1735,0.1634,0.1624,0.1592,0.1585,0.1664,0.1664,0.1665,0.1665,0,0.054,0.0549,0.0602,0.0653,0.0716,0.0766,0.0828,0.094,0.1038,0.1282,0.1328,0.1498,0.1631,0.1664,0.1698,0.1708,0.1664,0.1578,0.1585,0.159,0.1515,0.1487,0.1495,0,0,0,0,0,0.0496,0.0502,0.053,0.0582,0.064,0.0685,0.0805,0.088,0.1053,0.1125,0.1237,0.1344,0.1456,0.1537,0.1529,0.1634,0.1644,0.1615,0.1541,0.1643,0.1647,0.1565,0,0,0,0,0,0,0.0464,0.0487,0.0499,0.0517,0.0542,0.0605,0.068,0.0798,0.0858,0.1041,0.1109,0.1251,0.1367,0.1447,0.1499,0.1521,0.1445,0.1718,0.1715,0.1641,0.1645,0.1648,0.1565,0,0,0,0,0]},{"header":{"parameterUnit":"m.s-1","parameterCategory":2,"la1":30.2991,"la2":30.254,"lo1":-89.0895,"lo2":-89.0444,"dy":0.0017,"dx":0.0017,"nx":28,"ny":28,"refTime":"2025-07-26T21:00:00:Z","depth":"4","parameterNumber":3,"parameterNumberName":"V-component_of_CURRENTS"},"data":[0,0,0,0,0,0,0,0,0,0,0,0,0,0,0,0,0,0,0,0,0,0,0,0,0,0,0,0,0,0,0,0,0,0,0,0,0,0,0,0,0,0,0,0,0,0,0,0,0,0,0,0,0,0,0,0,0,0,-0.0029,-0.0029,0,-0.0084,-0.0085,-0.0085,-0.0131,-0.0131,-0.0131,-0.0131,-0.0227,-0.023,-0.0232,0,0,0,0,0,0,0,0,0,0,0,0,0,-0.0004,-0.0004,-0.0029,-0.0029,-0.003,-0.0084,-0.0085,-0.0086,-0.0131,-0.0131,-0.0131,-0.0131,-0.0227,-0.0229,-0.0232,0,0,0,0,0,0,0,0,0,0,0,0,0,-0.0035,-0.0004,-0.0029,-0.0057,-0.006,-0.0083,-0.0085,-0.0086,-0.0131,-0.0131,-0.0131,-0.0132,-0.0226,-0.0229,-0.0233,-0.0247,0,0,-0.0243,-0.0245,0,0,0,0,0,0,0,0,-0.0033,-0.0036,-0.0052,-0.0055,-0.0058,-0.0098,-0.0111,-0.0141,-0.013,-0.0106,-0.0131,-0.0132,-0.0186,-0.0193,-0.0205,-0.0251,-0.0255,-0.0244,-0.0246,-0.0247,-0.0248,0,0,0,0,0,0,0,-0.0031,-0.0034,-0.0053,-0.0053,-0.0056,-0.008,-0.0085,-0.0117,-0.0146,-0.0109,-0.0111,-0.0113,-0.0188,-0.0202,-0.0208,-0.0257,-0.0243,-0.0247,-0.0249,-0.025,-0.033,-0.033,0,0,0,0,0,0,-0.0016,-0.0032,-0.0052,-0.0055,-0.0043,-0.008,-0.0086,-0.0087,-0.0145,-0.0153,-0.0113,-0.0115,-0.0196,-0.0204,-0.0212,-0.0227,-0.0247,-0.025,-0.0252,-0.033,-0.033,-0.033,0,0,0,0,0,0,-0.0016,-0.0017,-0.0049,-0.0043,-0.0048,-0.008,-0.0082,-0.0088,-0.0104,-0.0147,-0.0157,-0.0121,-0.0196,-0.0207,-0.024,-0.0232,-0.0252,-0.0255,-0.033,-0.033,-0.033,-0.0262,0,0,0,0,0,0,-0.0015,-0.0017,-0.0019,-0.0041,-0.0048,-0.0062,-0.0081,-0.0089,-0.0103,-0.0107,-0.0158,-0.0167,-0.0198,-0.0234,-0.0243,-0.0237,-0.0258,-0.033,-0.033,-0.033,-0.0264,-0.0259,-0.0256,0,0,0,0,0,-0.0014,-0.0012,-0.0019,-0.0022,-0.0048,-0.0062,-0.0068,-0.0093,-0.0103,-0.0109,-0.0142,-0.0166,-0.0241,-0.0237,-0.0248,-0.0242,-0.033,-0.033,-0.033,-0.0266,-0.026,-0.0256,0,0,0,0,0,0,-0.0006,-0.0016,-0.0025,-0.0028,-0.0043,-0.0068,-0.0077,-0.009,-0.0121,-0.0126,-0.0168,-0.0179,-0.0209,-0.0235,-0.023,-0.0266,-0.0289,-0.0291,-0.0237,-0.0232,-0.0228,-0.0245,-0.0261,0,0,0,0,0,-0.0003,-0.0003,-0.0019,-0.0022,-0.0027,-0.0051,-0.0061,-0.0075,-0.01,-0.0114,-0.015,-0.0186,-0.0217,-0.0231,-0.0269,-0.0285,-0.0327,-0.0289,-0.0284,-0.0281,-0.0303,-0.0351,-0.0353,-0.033,-0.033,-0.033,0,0,0.0001,-0.0006,-0.0006,-0.002,-0.0034,-0.0037,-0.0059,-0.0069,-0.0074,-0.012,-0.0145,-0.0179,-0.0221,-0.0243,-0.0257,-0.0261,-0.0306,-0.0281,-0.0277,-0.0302,-0.0351,-0.0354,-0.0356,-0.033,-0.033,-0.033,0,0,0.0011,0.0001,0.0005,-0.0001,-0.0014,-0.0028,-0.0027,-0.0052,-0.0069,-0.0091,-0.0125,-0.0158,-0.0201,-0.023,-0.0249,-0.0247,-0.0288,-0.0248,-0.0232,-0.0277,-0.028,-0.0283,-0.032,-0.0326,-0.0237,-0.0236,-0.0236,0,0.0012,0.002,0.0003,0.0007,0.0007,-0.002,-0.0013,-0.0032,-0.0066,-0.008,-0.0093,-0.0167,-0.02,-0.0227,-0.0227,-0.0238,-0.0268,-0.0241,-0.0272,-0.0275,-0.028,-0.0317,-0.0325,-0.0233,-0.0234,-0.0234,-0.0234,0,0.0031,0.0035,0.0038,0.0037,0.003,0.0034,0.0013,-0.0001,-0.0023,-0.0046,-0.0087,-0.0136,-0.0179,-0.0185,-0.0208,-0.0243,-0.0255,-0.0265,-0.0281,-0.0278,-0.0317,-0.0327,-0.0228,-0.023,-0.0231,-0.0231,0,0,0.0041,0.005,0.0051,0.0064,0.0051,0.0053,0.0041,0.0023,0.0018,-0.0029,-0.0047,-0.0106,-0.0138,-0.0164,-0.0191,-0.0231,-0.0275,-0.0255,-0.0259,-0.0286,-0.0371,-0.0323,-0.033,-0.0282,-0.0284,-0.0286,-0.0379,0,0.006,0.0085,0.0079,0.0102,0.0114,0.0094,0.0089,0.0067,0.0038,0.0011,-0.0049,-0.008,-0.0124,-0.0135,-0.0187,-0.0258,-0.0302,-0.0249,-0.0377,-0.0381,-0.0335,-0.034,-0.0291,-0.0387,-0.0389,-0.0391,-0.0392,0,0.0081,0.0098,0.0124,0.0146,0.0149,0.0155,0.0148,0.0141,0.0093,0.0069,0.0016,-0.0032,-0.0104,-0.0134,-0.0274,-0.0235,-0.0308,-0.0365,-0.0369,-0.0364,-0.0353,-0.0399,-0.0411,-0.0409,-0.0408,-0.0407,-0.0405,0,0.0106,0.0131,0.0157,0.0165,0.0179,0.0185,0.0186,0.0155,0.0157,0.0104,0.0098,-0.0003,-0.0042,-0.016,-0.0279,-0.028,-0.0428,-0.0438,-0.0469,-0.0466,-0.0511,-0.0508,-0.0547,-0.0547,-0.0546,-0.0546,-0.0546,0,0.0133,0.0156,0.0176,0.0196,0.0233,0.0222,0.0248,0.023,0.021,0.0217,0.0132,0.0112,-0.0053,-0.0149,-0.0271,-0.0394,-0.0424,-0.0482,-0.0492,-0.0477,-0.0469,-0.0517,-0.0513,-0.055,-0.0549,-0.0548,-0.0548,0,0.0155,0.0166,0.0206,0.0234,0.0248,0.0272,0.0306,0.0322,0.0294,0.03,0.0289,0.0188,0.006,-0.0094,-0.028,-0.0362,-0.0494,-0.0529,-0.0495,-0.0499,-0.0509,-0.05,-0.0587,-0.0586,-0.0586,-0.0585,-0.0584,0,0.017,0.019,0.0242,0.0274,0.0292,0.0332,0.0363,0.0362,0.0381,0.035,0.0356,0.0245,0.0163,-0.0059,-0.0235,-0.0455,-0.0481,-0.0544,-0.0549,-0.0515,-0.0516,-0.0508,-0.05,-0.0583,-0.0583,-0.0583,-0.0583,0,0.0202,0.0215,0.0251,0.0318,0.0365,0.0421,0.0463,0.0485,0.0483,0.0465,0.0423,0.0303,0.0165,-0.0034,-0.0193,-0.0355,-0.0503,-0.0538,-0.0541,-0.0547,-0.0512,-0.0512,-0.0505,-0.0581,-0.0581,-0.0581,-0.0581,0,0.0226,0.0254,0.0302,0.036,0.0423,0.0483,0.0506,0.0533,0.0549,0.0514,0.0497,0.034,0.0238,0.0018,-0.0135,-0.0281,-0.0329,-0.0373,-0.0386,-0.0391,-0.0302,-0.0228,-0.0227,0,0,0,0,0,0.0251,0.0284,0.0342,0.0409,0.0471,0.0512,0.0563,0.0577,0.0578,0.0568,0.0536,0.0411,0.0186,0.0077,-0.0062,-0.0144,-0.0366,-0.031,-0.0426,-0.0568,-0.057,-0.0496,0,0,0,0,0,0,0.0267,0.032,0.0346,0.0438,0.0491,0.0567,0.0602,0.0607,0.0598,0.0574,0.0454,0.0393,0.0166,0.027,-0.0058,-0.0106,-0.0194,-0.0422,-0.0424,-0.0566,-0.0569,-0.0571,-0.0495,0,0,0,0,0]}]]